CW7664 Weather Reports


Display with metric or nautical units.
time (UTC)temp
F
wind
direction
speed
MPH
gust
MPH
rain 1hr
in
rain 24hr
in
rain mn
in
humidity
%
barometer
mb
20260508190009 70 174 3.0 10.0 0.00 0.00 0.00 67 1014.4
20260508184505 70 240 4.0 8.0 0.00 0.00 0.00 67 1014.6
20260508183114 69 142 2.0 7.0 0.00 0.00 0.00 69 1014.8
20260508181555 68 223 1.0 7.0 0.00 0.00 0.00 71 1015.0
20260508174601 65 218 2.0 4.0 0.00 0.00 0.00 75 1015.2
20260508173044 65 233 1.0 3.0 0.00 0.00 0.00 76 1015.3
20260508171541 64 216 2.0 4.0 0.00 0.00 0.00 77 1015.3
20260508170043 64 260 0.0 2.0 0.00 0.00 0.00 79 1015.2
20260508164544 63 196 1.0 3.0 0.00 0.00 0.00 80 1015.3
20260508163036 62 141 0.0 1.0 0.00 0.00 0.00 81 1015.2
20260508161529 61 229 0.0 2.0 0.00 0.00 0.00 82 1015.2
20260508160026 61 200 0.0 2.0 0.00 0.00 0.00 82 1015.3
20260508154524 61 135 0.0 0.0 0.00 0.00 0.00 83 1015.3
20260508153030 60 80 0.0 0.0 0.00 0.00 0.00 83 1015.3
20260508151520 60 71 0.0 0.0 0.00 0.00 0.00 83 1015.4
20260508150017 59 126 0.0 0.0 0.00 0.00 0.00 83 1015.2
20260508144524 59 94 0.0 0.0 0.00 0.00 0.00 83 1015.3
20260508143011 58 32 0.0 0.0 0.00 0.00 0.00 83 1015.3
20260508141511 58 39 0.0 2.0 0.00 0.00 0.00 84 1015.3
20260508140014 58 68 0.0 1.0 0.00 0.00 0.00 83 1015.2
20260508134505 57 73 0.0 2.0 0.00 0.00 0.00 84 1014.9
20260508133100 57 25 0.0 1.0 0.00 0.00 0.00 84 1014.8
20260508131607 56 25 0.0 1.0 0.00 0.00 0.00 84 1014.8
20260508130057 56 23 0.0 1.0 0.00 0.00 0.00 84 1014.6
20260508124554 56 32 0.0 2.0 0.00 0.00 0.00 83 1014.5
20260508123112 55 32 0.0 1.0 0.00 0.00 0.00 84 1014.5
20260508121601 55 32 0.0 1.0 0.00 0.00 0.00 84 1014.4
20260508120107 55 32 0.0 1.0 0.00 0.00 0.00 84 1014.3
20260508114559 54 32 0.0 1.0 0.00 0.00 0.00 84 1014.1
20260508113103 54 24 0.0 1.0 0.00 0.00 0.00 83 1014.2
20260508111551 54 31 0.0 1.0 0.00 0.00 0.00 83 1014.1
20260508110051 54 31 0.0 1.0 0.00 0.00 0.00 83 1014.2
20260508104549 54 31 0.0 0.0 0.00 0.00 0.00 83 1014.1
20260508103058 54 31 0.0 2.0 0.00 0.00 0.00 83 1014.0
20260508101553 54 31 0.0 1.0 0.00 0.00 0.00 83 1014.1
20260508100045 54 31 0.0 1.0 0.00 0.00 0.00 83 1014.0
20260508094544 54 31 0.0 1.0 0.00 0.00 0.00 83 1014.0
20260508093044 54 31 0.0 0.0 0.00 0.00 0.00 83 1014.0
20260508091543 54 31 0.0 0.0 0.00 0.00 0.00 82 1013.9
20260508090042 54 31 0.0 0.0 0.00 0.00 0.00 82 1013.9
20260508084540 55 31 0.0 0.0 0.00 0.00 0.00 82 1014.1
20260508083042 55 31 0.0 0.0 0.00 0.00 0.00 82 1014.2
20260508081538 55 31 0.0 0.0 0.00 0.00 0.00 82 1014.2
20260508080043 55 31 0.0 0.0 0.00 0.00 0.00 82 1014.2
20260508074534 56 31 0.0 0.0 0.00 0.00 0.00 82 1014.3
20260508073040 56 31 0.0 0.0 0.00 0.00 0.00 81 1014.3
20260508071534 56 31 0.0 0.0 0.00 0.00 0.00 81 1014.2
20260508070030 57 31 0.0 0.0 0.00 0.00 0.00 81 1014.1
20260508064535 57 33 0.0 0.0 0.00 0.00 0.00 81 1014.0
20260508063035 57 33 0.0 0.0 0.00 0.00 0.00 80 1013.9
20260508061530 57 33 0.0 2.0 0.00 0.00 0.00 80 1013.9
20260508060028 58 46 0.0 0.0 0.00 0.00 0.00 80 1013.7
20260508054527 58 351 0.0 0.0 0.00 0.00 0.00 79 1013.7
20260508053027 58 351 0.0 0.0 0.00 0.00 0.00 79 1013.6
20260508051527 59 351 0.0 0.0 0.00 0.00 0.00 78 1013.6
20260508050034 59 351 0.0 0.0 0.00 0.00 0.00 77 1013.5
20260508044526 60 348 0.0 1.0 0.00 0.00 0.00 77 1013.5
20260508043025 61 279 0.0 1.0 0.00 0.00 0.00 76 1013.4
20260508041525 62 254 0.0 2.0 0.00 0.00 0.00 77 1013.3
20260508040033 62 232 1.0 2.0 0.00 0.00 0.00 77 1013.1
20260508034524 63 200 0.0 3.0 0.00 0.00 0.00 76 1013.1
20260508033023 63 230 0.0 4.0 0.00 0.00 0.00 75 1012.9
20260508031523 63 240 1.0 3.0 0.00 0.00 0.00 75 1012.6
20260508030026 64 239 1.0 4.0 0.00 0.00 0.00 74 1012.6
20260508024522 64 323 1.0 6.0 0.00 0.00 0.00 73 1012.5
20260508023022 65 309 1.0 6.0 0.00 0.00 0.00 71 1012.3
20260508021521 67 345 2.0 6.0 0.00 0.00 0.00 69 1012.2
20260508020028 68 223 1.0 5.0 0.00 0.00 0.00 67 1012.2
20260508014522 70 288 2.0 6.0 0.00 0.00 0.00 64 1012.2
20260508013020 71 206 1.0 6.0 0.00 0.00 0.00 62 1012.0
20260508011520 72 267 1.0 6.0 0.00 0.00 0.00 60 1012.0
20260508010018 72 317 2.0 6.0 0.00 0.00 0.00 60 1012.0
20260508004518 72 301 2.0 7.0 0.00 0.00 0.00 59 1012.0
20260508003018 72 323 3.0 10.0 0.00 0.00 0.00 58 1012.0
20260508001536 73 237 2.0 8.0 0.00 0.00 0.00 58 1012.1
20260508000016 72 205 4.0 10.0 0.00 0.00 0.00 58 1012.0
20260507234517 73 280 3.0 11.0 0.00 0.00 0.00 57 1012.1
20260507233017 73 194 5.0 9.0 0.00 0.00 0.00 57 1012.2
20260507231514 73 235 5.0 12.0 0.00 0.00 0.00 57 1012.2
20260507230013 74 262 4.0 10.0 0.00 0.00 0.00 55 1012.3
20260507224512 74 319 4.0 11.0 0.00 0.00 0.00 56 1012.3
20260507223010 73 224 5.0 9.0 0.00 0.00 0.00 56 1012.5
20260507221510 74 220 4.0 12.0 0.00 0.00 0.00 56 1012.6
20260507220014 73 150 5.0 13.0 0.00 0.00 0.00 57 1012.8
20260507214505 75 214 5.0 10.0 0.00 0.00 0.00 54 1013.1
20260507213006 76 204 4.0 10.0 0.00 0.00 0.00 53 1013.2
20260507211503 76 188 4.0 12.0 0.00 0.00 0.00 53 1013.4
20260507210001 76 232 6.0 13.0 0.00 0.00 0.00 53 1013.5
20260507204600 76 236 5.0 14.0 0.00 0.00 0.00 53 1013.6
20260507203101 76 254 6.0 12.0 0.00 0.00 0.00 52 1013.7
20260507201600 76 315 5.0 13.0 0.00 0.00 0.00 52 1013.8
20260507200108 77 229 3.0 11.0 0.00 0.00 0.00 51 1013.9
20260507194555 77 196 3.0 11.0 0.00 0.00 0.00 53 1013.9
20260507193055 77 207 3.0 9.0 0.00 0.00 0.00 53 1013.9
20260507191556 76 245 4.0 9.0 0.00 0.00 0.00 53 1014.1